• In Russia
  • List of Countries
  • For 7 days
  • Water Temperature
  • Satellite Maps
  • Weather Map
  • Weather Widgets
  • user-avatar
    Login

    Hourly Weather Csorna

    Today, 20 November, Monday

    Time Temperature Precipitation Wind Pressure Humidity
    00:00 +1°C° 0 mm 4 mps 751 mmHg 76%
    01:00 0°C° 0 mm 4 mps 750 mmHg 79%
    02:00 0°C° 0 mm 4 mps 750 mmHg 77%
    03:00 +1°C° 0 mm 4 mps 751 mmHg 76%
    04:00 +1°C° 0 mm 4 mps 751 mmHg 74%
    05:00 +1°C° 0 mm 4 mps 751 mmHg 74%
    06:00 +1°C° 0 mm 4 mps 751 mmHg 73%
    07:00 +1°C° 0 mm 4 mps 752 mmHg 74%
    08:00 +2°C° 0 mm 5 mps 752 mmHg 69%
    09:00 +3°C° 0 mm 6 mps 752 mmHg 63%
    10:00 +5°C° 0 mm 8 mps 753 mmHg 58%
    11:00 +5°C° 0 mm 7 mps 753 mmHg 56%
    12:00 +6°C° 0 mm 7 mps 753 mmHg 53%
    13:00 +6°C° 0 mm 7 mps 753 mmHg 51%
    14:00 +5°C° 0 mm 6 mps 753 mmHg 55%
    15:00 +6°C° 0 mm 5 mps 753 mmHg 58%
    16:00 +5°C° 0 mm 4 mps 753 mmHg 62%
    17:00 +4°C° 0 mm 4 mps 753 mmHg 63%
    18:00 +4°C° 0 mm 4 mps 753 mmHg 65%
    19:00 +4°C° 0 mm 4 mps 753 mmHg 67%
    20:00 +4°C° 0.1 mm 3 mps 753 mmHg 68%
    21:00 +4°C° 0.1 mm 3 mps 753 mmHg 69%
    22:00 +4°C° 0.1 mm 3 mps 753 mmHg 70%
    23:00 +4°C° 0.2 mm 3 mps 753 mmHg 72%

    Tomorrow, 21 November, Tuesday

    Time Temperature Precipitation Wind Pressure Humidity
    00:00 +4°C° 0.2 mm 2 mps 753 mmHg 74%
    01:00 +4°C° 0.2 mm 2 mps 752 mmHg 76%
    02:00 +4°C° 0.3 mm 2 mps 752 mmHg 76%
    03:00 +4°C° 0.3 mm 2 mps 751 mmHg 76%
    04:00 +4°C° 0.3 mm 2 mps 751 mmHg 77%
    05:00 +4°C° 0.4 mm 2 mps 751 mmHg 77%
    06:00 +4°C° 0.4 mm 2 mps 750 mmHg 78%
    07:00 +4°C° 0.4 mm 2 mps 750 mmHg 79%
    08:00 +3°C° 0.2 mm 3 mps 750 mmHg 77%
    09:00 +4°C° 0.2 mm 3 mps 750 mmHg 76%
    10:00 +4°C° 0.2 mm 3 mps 750 mmHg 74%
    11:00 +5°C° 0.5 mm 3 mps 750 mmHg 74%
    12:00 +7°C° 0.5 mm 3 mps 750 mmHg 73%
    13:00 +8°C° 0.5 mm 3 mps 750 mmHg 72%
    14:00 +8°C° 0.1 mm 3 mps 750 mmHg 73%
    15:00 +8°C° 0.1 mm 3 mps 750 mmHg 75%
    16:00 +8°C° 0.1 mm 3 mps 750 mmHg 76%
    17:00 +8°C° 0 mm 3 mps 750 mmHg 77%
    18:00 +8°C° 0 mm 3 mps 750 mmHg 78%
    19:00 +7°C° 0 mm 3 mps 750 mmHg 80%
    20:00 +8°C° 0 mm 3 mps 751 mmHg 80%
    21:00 +8°C° 0 mm 3 mps 751 mmHg 80%
    22:00 +8°C° 0 mm 3 mps 751 mmHg 80%
    23:00 +8°C° 0.2 mm 3 mps 751 mmHg 81%

    Day after tomorrow, 22 November, Wednesday

    Time Temperature Precipitation Wind Pressure Humidity
    00:00 +8°C° 0.2 mm 3 mps 751 mmHg 82%
    01:00 +8°C° 0.2 mm 3 mps 751 mmHg 83%
    02:00 +7°C° 0.1 mm 3 mps 751 mmHg 83%
    03:00 +7°C° 0.1 mm 2 mps 751 mmHg 83%
    04:00 +7°C° 0.1 mm 2 mps 751 mmHg 84%
    05:00 +6°C° 0 mm 2 mps 751 mmHg 84%
    06:00 +6°C° 0 mm 2 mps 751 mmHg 84%
    07:00 +6°C° 0 mm 2 mps 751 mmHg 84%
    08:00 +7°C° 0 mm 2 mps 751 mmHg 79%
    09:00 +8°C° 0 mm 2 mps 751 mmHg 75%
    10:00 +9°C° 0 mm 2 mps 752 mmHg 70%
    11:00 +10°C° 0 mm 2 mps 751 mmHg 68%
    12:00 +11°C° 0 mm 3 mps 751 mmHg 65%
    13:00 +12°C° 0 mm 3 mps 751 mmHg 62%
    14:00 +12°C° 0 mm 2 mps 751 mmHg 67%
    15:00 +10°C° 0 mm 2 mps 751 mmHg 72%
    16:00 +9°C° 0 mm 2 mps 751 mmHg 77%
    17:00 +9°C° 0 mm 2 mps 751 mmHg 80%
    18:00 +8°C° 0 mm 2 mps 751 mmHg 83%
    19:00 +8°C° 0 mm 2 mps 751 mmHg 85%
    20:00 +7°C° 0 mm 2 mps 751 mmHg 86%
    21:00 +7°C° 0 mm 2 mps 751 mmHg 86%
    22:00 +7°C° 0 mm 2 mps 751 mmHg 87%
    23:00 +7°C° 0 mm 2 mps 751 mmHg 88%

    23 November, Thursday

    Time Temperature Precipitation Wind Pressure Humidity
    00:00 +6°C° 0 mm 2 mps 751 mmHg 88%
    01:00 +6°C° 0 mm 2 mps 751 mmHg 89%
    02:00 +6°C° 0 mm 2 mps 751 mmHg 89%
    03:00 +6°C° 0 mm 2 mps 751 mmHg 90%
    04:00 +5°C° 0 mm 2 mps 751 mmHg 90%
    05:00 +5°C° 0 mm 2 mps 751 mmHg 91%
    06:00 +5°C° 0 mm 2 mps 752 mmHg 91%
    07:00 +5°C° 0 mm 2 mps 752 mmHg 91%
    08:00 +6°C° 0 mm 2 mps 752 mmHg 88%
    09:00 +8°C° 0 mm 1 mps 753 mmHg 84%
    10:00 +9°C° 0 mm 1 mps 753 mmHg 80%
    11:00 +10°C° 0 mm 1 mps 753 mmHg 76%
    12:00 +11°C° 0 mm 1 mps 753 mmHg 73%
    13:00 +12°C° 0 mm 1 mps 753 mmHg 69%
    14:00 +11°C° 0 mm 1 mps 754 mmHg 74%
    15:00 +10°C° 0 mm 1 mps 754 mmHg 79%
    16:00 +9°C° 0 mm 1 mps 754 mmHg 84%
    17:00 +9°C° 0 mm 1 mps 754 mmHg 86%
    18:00 +8°C° 0 mm 1 mps 755 mmHg 87%
    19:00 +8°C° 0 mm 1 mps 755 mmHg 89%
    20:00 +7°C° 0 mm 1 mps 756 mmHg 89%
    21:00 +7°C° 0 mm 1 mps 756 mmHg 89%
    22:00 +7°C° 0 mm 1 mps 756 mmHg 90%
    23:00 +7°C° 0 mm 1 mps 756 mmHg 90%

    24 November, Friday

    Time Temperature Precipitation Wind Pressure Humidity
    00:00 +7°C° 0 mm 1 mps 756 mmHg 90%
    01:00 +6°C° 0 mm 0 mps 757 mmHg 89%
    02:00 +5°C° 0 mm 0 mps 757 mmHg 90%
    03:00 +6°C° 0 mm 1 mps 757 mmHg 90%
    04:00 +6°C° 0 mm 1 mps 757 mmHg 90%
    05:00 +6°C° 0 mm 1 mps 757 mmHg 90%
    06:00 +6°C° 0 mm 1 mps 757 mmHg 90%
    07:00 +6°C° 0 mm 1 mps 757 mmHg 90%
    08:00 +7°C° 0 mm 1 mps 757 mmHg 86%
    09:00 +8°C° 0 mm 1 mps 757 mmHg 81%
    10:00 +8°C° 0 mm 2 mps 757 mmHg 77%
    11:00 +10°C° 0 mm 2 mps 757 mmHg 73%
    12:00 +12°C° 0 mm 2 mps 757 mmHg 68%
    13:00 +13°C° 0 mm 2 mps 756 mmHg 64%
    14:00 +12°C° 0 mm 2 mps 756 mmHg 69%
    15:00 +10°C° 0 mm 3 mps 756 mmHg 74%
    16:00 +9°C° 0 mm 3 mps 756 mmHg 79%
    17:00 +8°C° 0 mm 3 mps 756 mmHg 81%
    18:00 +8°C° 0 mm 3 mps 757 mmHg 84%
    19:00 +7°C° 0 mm 3 mps 757 mmHg 86%
    20:00 +7°C° 0 mm 3 mps 757 mmHg 87%
    21:00 +7°C° 0 mm 3 mps 757 mmHg 88%
    22:00 +5°C° 0 mm 3 mps 757 mmHg 89%
    23:00 +5°C° 0 mm 3 mps 757 mmHg 90%

    25 November, Saturday

    Time Temperature Precipitation Wind Pressure Humidity
    00:00 +5°C° 0 mm 3 mps 757 mmHg 90%
    01:00 +5°C° 0 mm 3 mps 757 mmHg 91%
    02:00 +5°C° 0 mm 3 mps 757 mmHg 91%
    03:00 +5°C° 0 mm 3 mps 757 mmHg 92%
    04:00 +4°C° 0 mm 3 mps 756 mmHg 92%
    05:00 +4°C° 0 mm 4 mps 756 mmHg 92%
    06:00 +4°C° 0 mm 4 mps 756 mmHg 92%
    07:00 +4°C° 0 mm 4 mps 756 mmHg 92%
    08:00 +5°C° 0 mm 4 mps 756 mmHg 87%
    09:00 +6°C° 0 mm 5 mps 756 mmHg 82%
    10:00 +7°C° 0 mm 5 mps 755 mmHg 77%
    11:00 +8°C° 0 mm 5 mps 755 mmHg 74%
    12:00 +9°C° 0 mm 5 mps 755 mmHg 70%
    13:00 +10°C° 0 mm 6 mps 754 mmHg 66%
    14:00 +10°C° 0 mm 5 mps 754 mmHg 70%
    15:00 +10°C° 0 mm 4 mps 754 mmHg 75%
    16:00 +9°C° 0 mm 3 mps 754 mmHg 79%
    17:00 +8°C° 0 mm 3 mps 754 mmHg 82%
    18:00 +8°C° 0 mm 3 mps 754 mmHg 85%
    19:00 +7°C° 0 mm 2 mps 754 mmHg 88%
    20:00 +7°C° 0 mm 2 mps 754 mmHg 88%
    21:00 +7°C° 0 mm 2 mps 754 mmHg 88%
    22:00 +7°C° 0 mm 2 mps 754 mmHg 88%
    23:00 +8°C° 0 mm 1 mps 754 mmHg 88%
    Show more